FW6456 Weather Reports


Display with metric or nautical units.
time (UTC)temp
F
wind
direction
speed
MPH
gust
MPH
rain 1hr
in
rain 24hr
in
rain mn
in
humidity
%
barometer
mb
20260502180202 62 337 2.0 3.0 0.00 0.00 0.00 63 3409.6
20260502170120 60 136 0.0 0.0 0.00 0.00 0.00 62 3410.5
20260502164107 61 354 2.0 3.0 0.00 0.00 0.00 56 3410.4
20260502163603 60 114 0.0 0.0 0.00 0.00 0.00 61 3410.6
20260502163100 60 3 3.0 3.0 0.00 0.00 0.00 58 3410.7
20260502162556 60 276 3.0 7.0 0.00 0.00 0.00 58 3410.6
20260502162053 60 337 0.0 2.0 0.00 0.00 0.00 58 3410.6
20260502161550 60 114 0.0 2.0 0.00 0.00 0.00 63 3410.7
20260502161048 60 26 3.0 5.0 0.00 0.00 0.00 59 3410.5
20260502160546 59 127 2.0 3.0 0.00 0.00 0.00 60 3410.9
20260502151959 57 59 0.0 2.0 0.00 0.00 0.00 74 3410.9
20260502151455 56 13 1.0 2.0 0.00 0.00 0.00 72 3410.9
20260502150952 56 111 0.0 0.0 0.00 0.00 0.00 74 3410.7
20260502150450 56 117 1.0 2.0 0.00 0.00 0.00 76 3410.7
20260502130336 45 265 0.0 0.0 0.00 0.00 0.00 99 3410.3
20260502123318 42 265 0.0 0.0 0.00 0.00 0.00 99 3410.2
20260502122815 42 265 0.0 0.0 0.00 0.00 0.00 99 3410.4
20260502122310 42 265 0.0 0.0 0.00 0.00 0.00 99 3410.3
20260502121809 41 265 0.0 0.0 0.00 0.00 0.00 99 3410.2
20260502121306 41 265 0.0 0.0 0.00 0.00 0.00 99 3410.2
20260502120803 41 265 0.0 0.0 0.00 0.00 0.00 99 3410.4
20260502120300 41 265 0.0 0.0 0.00 0.00 0.00 99 3410.1
20260502115757 41 265 0.0 0.0 0.00 0.00 0.00 99 3410.0
20260502115248 41 265 0.0 0.0 0.00 0.00 0.00 99 3410.1
20260502114744 41 265 0.0 0.0 0.00 0.00 0.00 99 3410.0
20260502114241 41 265 0.0 0.0 0.00 0.00 0.00 99 3410.0
20260502113738 40 265 0.0 0.0 0.00 0.00 0.00 99 3410.0
20260502113236 40 265 0.0 0.0 0.00 0.00 0.00 99 3409.7
20260502112734 40 265 0.0 0.0 0.00 0.00 0.00 99 3409.8
20260502112231 40 265 0.0 0.0 0.00 0.00 0.00 99 3409.6
20260502111728 39 265 0.0 0.0 0.00 0.00 0.00 99 3409.6
20260502111225 39 265 0.0 0.0 0.00 0.00 0.00 99 3409.5
20260502110723 39 265 0.0 0.0 0.00 0.00 0.00 99 3409.4
20260502110221 39 265 0.0 0.0 0.00 0.00 0.00 99 3409.6
20260502105719 39 265 0.0 0.0 0.00 0.00 0.00 99 3409.4
20260502105215 40 265 0.0 0.0 0.00 0.00 0.00 99 3409.4
20260502104712 40 265 0.0 0.0 0.00 0.00 0.00 99 3409.3
20260502104210 40 265 0.0 0.0 0.00 0.00 0.00 99 3409.3
20260502103707 40 265 0.0 0.0 0.00 0.00 0.00 99 3409.5
20260502103205 40 265 0.0 0.0 0.00 0.00 0.00 99 3409.3
20260502102702 40 265 0.0 0.0 0.00 0.00 0.00 99 3409.1
20260502102158 40 265 0.0 0.0 0.00 0.00 0.00 99 3409.2
20260502101656 41 265 0.0 0.0 0.00 0.00 0.00 99 3409.2
20260502101154 41 265 0.0 0.0 0.00 0.00 0.00 99 3409.3
20260502100653 41 265 0.0 0.0 0.00 0.00 0.00 99 3409.4
20260502100150 41 265 0.0 0.0 0.00 0.00 0.00 99 3409.3
20260502091124 39 265 0.0 0.0 0.00 0.00 0.00 99 3409.1
20260502090621 39 265 0.0 0.0 0.00 0.00 0.00 99 3409.2
20260502090118 40 265 0.0 0.0 0.00 0.00 0.00 99 3409.1
20260502071516 41 265 0.0 0.0 0.00 0.00 0.00 98 3409.3
20260502071014 41 265 0.0 0.0 0.00 0.00 0.00 98 3409.6
20260502070511 41 265 0.0 0.0 0.00 0.00 0.00 98 3409.5
20260502070010 41 265 0.0 0.0 0.00 0.00 0.00 98 3409.8
20260502065508 41 265 0.0 0.0 0.00 0.00 0.00 98 3409.6
20260502065005 41 265 0.0 0.0 0.00 0.00 0.00 98 3409.7
20260502064504 42 265 0.0 0.0 0.00 0.00 0.00 98 3409.6
20260502064000 42 265 0.0 0.0 0.00 0.00 0.00 98 3409.8
20260502063459 42 265 0.0 0.0 0.00 0.00 0.00 97 3409.9
20260502062955 42 265 0.0 0.0 0.00 0.00 0.00 97 3409.7
20260502062452 42 265 0.0 0.0 0.00 0.00 0.00 97 3409.9
20260502061951 42 265 0.0 0.0 0.00 0.00 0.00 97 3409.9
20260502061449 42 265 0.0 0.0 0.00 0.00 0.00 97 3409.8
20260502060944 42 265 0.0 0.0 0.00 0.00 0.00 97 3409.6
20260502060440 42 265 0.0 0.0 0.00 0.00 0.00 97 3409.8
20260502055937 42 265 0.0 0.0 0.00 0.00 0.00 97 3409.7
20260502055434 42 265 0.0 0.0 0.00 0.00 0.00 96 3409.9
20260502054929 42 265 0.0 0.0 0.00 0.00 0.00 96 3410.1
20260502054426 42 265 0.0 0.0 0.00 0.00 0.00 96 3409.8
20260502053923 42 265 0.0 0.0 0.00 0.00 0.00 96 3409.8
20260502053420 42 265 0.0 0.0 0.00 0.00 0.00 96 3409.6
20260502052918 43 265 0.0 0.0 0.00 0.00 0.00 96 3409.8
20260502052416 43 265 0.0 0.0 0.00 0.00 0.00 95 3409.7
20260502051914 43 265 0.0 0.0 0.00 0.00 0.00 95 3409.7
20260502051412 43 265 0.0 0.0 0.00 0.00 0.00 95 3410.1
20260502050908 43 265 0.0 0.0 0.00 0.00 0.00 95 3410.2
20260502050405 43 265 0.0 0.0 0.00 0.00 0.00 95 3410.1
20260502045902 43 265 0.0 0.0 0.00 0.00 0.00 94 3410.3
20260502045359 44 265 0.0 0.0 0.00 0.00 0.00 94 3410.1
20260502044856 44 265 0.0 0.0 0.00 0.00 0.00 94 3410.1
20260502044351 44 265 0.0 0.0 0.00 0.00 0.00 94 3410.1
20260502043849 0 0.0 0.0 0.00 0.00 0.00 3410.5
20260502043346 0 0.0 0.0 0.00 0.00 0.00 3410.4
20260502042840 44 265 0.0 0.0 0.00 0.00 0.00 92 3410.6
20260502042338 44 265 0.0 0.0 0.00 0.00 0.00 92 3410.3
20260502041835 44 265 0.0 0.0 0.00 0.00 0.00 92 3410.4
20260502041332 44 265 0.0 0.0 0.00 0.00 0.00 92 3410.2
20260502040829 44 265 0.0 0.0 0.00 0.00 0.00 91 3410.5
20260502040326 44 265 0.0 0.0 0.00 0.00 0.00 91 3410.5
20260502035822 44 265 0.0 0.0 0.00 0.00 0.00 91 3410.3
20260502035319 45 265 0.0 0.0 0.00 0.00 0.00 90 3410.4
20260502034817 45 265 0.0 0.0 0.00 0.00 0.00 90 3410.5
20260502034315 45 265 0.0 0.0 0.00 0.00 0.00 89 3410.5
20260502033813 45 265 0.0 0.0 0.00 0.00 0.00 88 3410.7
20260502033310 46 265 0.0 0.0 0.00 0.00 0.00 88 3410.7
20260502032807 46 265 0.0 0.0 0.00 0.00 0.00 88 3410.6
20260502032305 46 265 0.0 0.0 0.00 0.00 0.00 87 3410.7
20260502031800 46 265 0.0 0.0 0.00 0.00 0.00 87 3410.8
20260502031259 46 265 0.0 0.0 0.00 0.00 0.00 86 3410.8
20260502030757 47 265 0.0 0.0 0.00 0.00 0.00 85 3410.6
20260502030254 47 265 0.0 0.0 0.00 0.00 0.00 85 3410.8
20260502025751 47 265 0.0 0.0 0.00 0.00 0.00 85 3410.6
20260502025249 47 265 0.0 0.0 0.00 0.00 0.00 84 3410.5
20260502024747 47 265 0.0 0.0 0.00 0.00 0.00 83 3410.7
20260502024244 47 265 0.0 0.0 0.00 0.00 0.00 83 3410.4
20260502023742 48 265 0.0 0.0 0.00 0.00 0.00 82 3410.5
20260502023240 48 265 0.0 0.0 0.00 0.00 0.00 81 3410.5
20260502022738 48 265 0.0 0.0 0.00 0.00 0.00 80 3410.4
20260502022233 49 265 0.0 0.0 0.00 0.00 0.00 80 3410.4
20260502021731 49 265 0.0 0.0 0.00 0.00 0.00 79 3410.5
20260502021228 49 265 0.0 0.0 0.00 0.00 0.00 79 3410.4
20260502020725 50 265 0.0 0.0 0.00 0.00 0.00 77 3410.0
20260502020222 50 265 0.0 0.0 0.00 0.00 0.00 77 3410.3
20260502015720 50 265 0.0 0.0 0.00 0.00 0.00 76 3410.0
20260502015216 51 265 0.0 0.0 0.00 0.00 0.00 76 3410.1
20260502014714 51 265 0.0 0.0 0.00 0.00 0.00 74 3410.1
20260502014210 51 265 0.0 0.0 0.00 0.00 0.00 73 3410.2
20260502013707 52 265 0.0 0.0 0.00 0.00 0.00 73 3410.2
20260502013202 52 265 0.0 0.0 0.00 0.00 0.00 70 3410.2
20260502012659 52 265 0.0 0.0 0.00 0.00 0.00 69 3410.0
20260502012158 53 265 0.0 0.0 0.00 0.00 0.00 68 3409.9
20260502011654 53 265 0.0 0.0 0.00 0.00 0.00 67 3409.8
20260502011149 53 265 0.0 0.0 0.00 0.00 0.00 67 3409.8
20260502010648 54 265 0.0 0.0 0.00 0.00 0.00 65 3409.5
20260502010143 54 265 0.0 0.0 0.00 0.00 0.00 63 3409.5
20260502005641 55 265 0.0 0.0 0.00 0.00 0.00 63 3409.3
20260502005139 55 265 1.0 2.0 0.00 0.00 0.00 60 3409.4
20260502004634 55 22 0.0 0.0 0.00 0.00 0.00 60 3409.1
20260502004131 56 22 0.0 0.0 0.00 0.00 0.00 60 3408.8
20260502003629 56 22 0.0 0.0 0.00 0.00 0.00 59 3408.7
20260502003126 56 22 0.0 0.0 0.00 0.00 0.00 57 3408.8
20260502002622 57 22 0.0 0.0 0.00 0.00 0.00 58 3408.8
20260502002120 57 22 0.0 0.0 0.00 0.00 0.00 57 3408.5
20260502001617 58 21 0.0 0.0 0.00 0.00 0.00 54 3408.6
20260502001114 58 21 0.0 0.0 0.00 0.00 0.00 54 3408.5
20260502000613 58 348 0.0 0.0 0.00 0.00 0.00 54 3408.4
20260502000110 58 348 0.0 2.0 0.00 0.00 0.00 53 3408.4
20260501235605 58 337 2.0 3.0 0.00 0.00 0.00 53 3408.2
20260501235102 58 275 0.0 0.0 0.00 0.00 0.00 53 3408.0
20260501234557 58 8 2.0 3.0 0.00 0.00 0.00 53 3408.2
20260501234055 58 8 0.0 0.0 0.00 0.00 0.00 54 3408.3
20260501233553 58 9 0.0 0.0 0.00 0.00 0.00 54 3408.3
20260501233050 59 8 0.0 0.0 0.00 0.00 0.00 52 3408.1
20260501232546 59 9 0.0 0.0 0.00 0.00 0.00 51 3408.1
20260501232043 59 13 2.0 3.0 0.00 0.00 0.00 50 3408.0
20260501231541 60 265 3.0 5.0 0.00 0.00 0.00 49 3408.0
20260501231039 60 112 2.0 3.0 0.00 0.00 0.00 49 3408.1
20260501230538 60 17 2.0 3.0 0.00 0.00 0.00 50 3407.9
20260501230035 59 3 3.0 5.0 0.00 0.00 0.00 50 3407.8
20260501225532 60 307 2.0 3.0 0.00 0.00 0.00 50 3407.7
20260501225028 60 25 3.0 5.0 0.00 0.00 0.00 49 3407.6
20260501224526 60 45 1.0 2.0 0.00 0.00 0.00 49 3407.7
20260501224023 61 338 3.0 5.0 0.00 0.00 0.00 49 3407.8
20260501223519 62 307 5.0 7.0 0.00 0.00 0.00 47 3407.8
20260501223015 62 329 3.0 5.0 0.00 0.00 0.00 48 3407.7
20260501222511 60 277 2.0 2.0 0.00 0.00 0.00 50 3407.8
20260501222009 60 260 3.0 5.0 0.00 0.00 0.00 51 3407.9
20260501221505 61 246 1.0 2.0 0.00 0.00 0.00 49 3407.7
20260501221003 62 301 4.0 7.0 0.00 0.00 0.00 49 3407.7
20260501220501 62 39 0.0 0.0 0.00 0.00 0.00 46 3407.8
20260501215957 63 8 3.0 3.0 0.00 0.00 0.00 45 3407.7
20260501215453 63 137 1.0 3.0 0.00 0.00 0.00 48 3407.4
20260501214949 63 36 2.0 2.0 0.00 0.00 0.00 47 3407.7
20260501214444 64 292 3.0 3.0 0.00 0.00 0.00 47 3407.7
20260501213940 64 335 3.0 3.0 0.00 0.00 0.00 46 3407.9
20260501213438 63 49 1.0 2.0 0.00 0.00 0.00 47 3407.8
20260501212932 64 7 3.0 5.0 0.00 0.00 0.00 47 3408.1
20260501212430 64 109 0.0 0.0 0.00 0.00 0.00 49 3408.1
20260501211926 63 140 2.0 3.0 0.00 0.00 0.00 48 3408.1
20260501211424 63 307 3.0 5.0 0.00 0.00 0.00 45 3408.0
20260501210921 63 317 3.0 5.0 0.00 0.00 0.00 45 3407.9
20260501210418 63 344 1.0 2.0 0.00 0.00 0.00 45 3408.2
20260501205915 62 273 2.0 3.0 0.00 0.00 0.00 45 3408.1
20260501205411 62 292 4.0 5.0 0.00 0.00 0.00 47 3408.2
20260501204909 63 319 6.0 8.0 0.00 0.00 0.00 45 3408.3
20260501204404 64 73 1.0 2.0 0.00 0.00 0.00 46 3408.0
20260501203901 62 53 1.0 2.0 0.00 0.00 0.00 48 3408.2
20260501203358 62 44 0.0 0.0 0.00 0.00 0.00 47 3408.6
20260501202855 63 357 6.0 8.0 0.00 0.00 0.00 45 3408.3
20260501202352 63 213 1.0 2.0 0.00 0.00 0.00 46 3408.6
20260501201849 63 217 3.0 3.0 0.00 0.00 0.00 45 3408.5
20260501201346 62 224 2.0 3.0 0.00 0.00 0.00 45 3408.7
20260501200842 63 326 7.0 11.0 0.00 0.00 0.00 44 3408.8
20260501200339 63 334 2.0 2.0 0.00 0.00 0.00 43 3408.8
20260501195838 63 320 6.0 8.0 0.00 0.00 0.00 43 3408.9
20260501195332 63 110 0.0 2.0 0.00 0.00 0.00 44 3408.7
20260501194829 63 157 3.0 5.0 0.00 0.00 0.00 43 3408.8
20260501194325 62 17 4.0 7.0 0.00 0.00 0.00 44 3408.8
20260501193821 63 309 6.0 8.0 0.00 0.00 0.00 44 3408.7
20260501193320 64 261 4.0 7.0 0.00 0.00 0.00 41 3408.8
20260501192817 64 168 2.0 2.0 0.00 0.00 0.00 43 3408.9
20260501192314 64 252 3.0 8.0 0.00 0.00 0.00 41 3408.8
20260501191811 63 217 1.0 2.0 0.00 0.00 0.00 41 3408.8
20260501191308 63 288 5.0 11.0 0.00 0.00 0.00 39 3409.0
20260501190759 64 0 7.0 8.0 0.00 0.00 0.00 40 3409.0
20260501190255 64 339 3.0 5.0 0.00 0.00 0.00 39 3408.9
20260501185750 63 132 2.0 2.0 0.00 0.00 0.00 41 3408.9
20260501185247 62 7 6.0 7.0 0.00 0.00 0.00 39 3409.2
20260501184743 62 216 2.0 3.0 0.00 0.00 0.00 40 3409.2
20260501184238 62 283 4.0 5.0 0.00 0.00 0.00 40 3409.3
20260501183734 62 306 3.0 5.0 0.00 0.00 0.00 38 3408.9
20260501183232 62 329 10.0 18.0 0.00 0.00 0.00 40 3408.9
20260501182728 62 277 3.0 3.0 0.00 0.00 0.00 39 3408.9
20260501182225 62 37 1.0 2.0 0.00 0.00 0.00 41 3408.8
20260501181722 62 283 10.0 13.0 0.00 0.00 0.00 38 3408.9
20260501181219 62 253 5.0 8.0 0.00 0.00 0.00 40 3409.0
20260501180717 61 20 7.0 10.0 0.00 0.00 0.00 40 3408.7